Location: Borea
(45.6167°N, 23.0167°E)
Time: 11:11:15
(UTC+00:00)

SL-16 R/B - Pass Details

Date: 03 February 2023
Orbit: 842 x 846 km, 71.0° (Epoch: 30 March)

Event Time Altitude Azimuth Distance (km) Brightness Sun altitude
Rises 16:47:11 0° 209° (SSW) 3,386 6.0 -12.6°
Reaches altitude 10° 16:49:38 10° 211° (SSW) 2,455 5.2 -13.0°
Maximum altitude 16:55:16 75° 297° (WNW) 876 2.4 -14.0°
Drops below altitude 10° 17:00:57 10° 23° (NNE) 2,473 4.3 -15.0°
Enters shadow 17:02:44 - 25° (NNE) 3,152 4.9 -15.3°
